Weather History for Corinth, MS

Change the Weather History Date:

Wednesday, May 2, 2012

  Actual Average Record
Temperature  
Mean Temperature 74 °F -  
Max Temperature 86 °F 76 °F 92 °F (1952)
Min Temperature 62 °F 52 °F 40 °F (1963)
Cooling Degree Days 9    
Growing Degree Days 24 (Base 50)    
Moisture  
Dew Point 64 °F    
Average Humidity 74    
Maximum Humidity 100    
Minimum Humidity 48    
Precipitation  
Precipitation 0.00 in - - ()
Sea Level Pressure  
Sea Level Pressure 30.03 in    
Wind  
Wind Speed 6 mph (SSE)    
Max Wind Speed 15 mph    
Max Gust Speed 33 mph    
Visibility 9 miles    
Events Rain , Thunderstorm    
Averages and records for this station are not official NWS values.
T = Trace of Precipitation, MM = Missing Value Source: NWS Daily Summary

Daily Weather History Graph

Daily Weather History Graph

Search for Another Location

Airport:

Trip Planner

Search our weather history database for the weather conditions in past years. The results will help you decide how hot, cold, wet, or windy it might be!

Date:

Astronomy

May. 02, 2012 Rise Set
Actual Time 6:02 AM CDT 7:40 PM CDT
Civil Twilight 5:35 AM CDT 8:08 PM CDT
Nautical Twilight 5:02 AM CDT 8:40 PM CDT
Astronomical Twilight 4:28 AM CDT 9:15 PM CDT
Moon 4:01 PM CDT (5/2) 3:22 AM CDT (5/2)
Length of Visible Light 14h 33m
Length of Day
13h 38m
Waxing Gibbous, 83% of the Moon is Illuminated
May 2
Waxing Gibbous
May 5
Full
May 12
Last Quarter
May 20
New
May 28
First Quarter

Hourly Weather History & Observations

Time (CDT) Temp. Heat Index Dew Point Humidity Pressure Visibility Wind Dir Wind Speed Gust Speed Precip Events Conditions
12:10 AM 68.0 °F - 64.4 °F 88% 30.00 in 10.0 mi SSE 4.6 mph - N/A   Clear
12:30 AM 66.2 °F - 64.4 °F 94% 30.00 in 10.0 mi SE 4.6 mph - N/A   Clear
12:50 AM 66.2 °F - 62.6 °F 88% 30.00 in 10.0 mi SSE 3.5 mph - N/A   Clear
1:10 AM 66.2 °F - 62.6 °F 88% 30.00 in 10.0 mi SSE 3.5 mph - N/A   Clear
1:30 AM 66.2 °F - 62.6 °F 88% 29.99 in 10.0 mi Calm Calm - N/A   Clear
1:50 AM 64.4 °F - 62.6 °F 94% 29.99 in 10.0 mi Calm Calm - N/A   Clear
2:10 AM 64.4 °F - 62.6 °F 94% 29.99 in 8.0 mi Calm Calm - N/A   Clear
2:30 AM 64.4 °F - 62.6 °F 94% 29.99 in 8.0 mi Calm Calm - N/A   Clear
2:50 AM 64.4 °F - 62.6 °F 94% 29.99 in 7.0 mi SE 4.6 mph - N/A   Clear
3:10 AM 64.4 °F - 62.6 °F 94% 30.00 in 7.0 mi Calm Calm - N/A   Clear
3:30 AM 64.4 °F - 62.6 °F 94% 30.00 in 7.0 mi Calm Calm - N/A   Clear
3:50 AM 62.6 °F - 60.8 °F 94% 30.00 in 7.0 mi SE 4.6 mph - N/A   Clear
4:10 AM 62.6 °F - 62.6 °F 100% 30.00 in 8.0 mi SE 3.5 mph - N/A   Partly Cloudy
4:30 AM 64.4 °F - 62.6 °F 94% 30.01 in 8.0 mi SSE 4.6 mph - N/A   Clear
4:50 AM 64.4 °F - 62.6 °F 94% 30.01 in 7.0 mi SSE 5.8 mph - N/A   Clear
5:10 AM 64.4 °F - 62.6 °F 94% 30.01 in 7.0 mi SSE 3.5 mph - N/A   Clear
5:30 AM 64.4 °F - 62.6 °F 94% 30.02 in 8.0 mi SSE 4.6 mph - N/A   Clear
5:50 AM 64.4 °F - 62.6 °F 94% 30.02 in 7.0 mi SSE 4.6 mph - N/A   Clear
6:10 AM 64.4 °F - 62.6 °F 94% 30.04 in 5.0 mi SSE 6.9 mph - N/A   Clear
6:30 AM 64.4 °F - 62.6 °F 94% 30.04 in 6.0 mi SSE 5.8 mph - N/A   Clear
6:50 AM 66.2 °F - 62.6 °F 88% 30.05 in 8.0 mi SSE 3.5 mph - N/A   Clear
7:10 AM 68.0 °F - 64.4 °F 88% 30.05 in 9.0 mi Calm Calm - N/A   Clear
7:30 AM 68.0 °F - 64.4 °F 88% 30.05 in 9.0 mi Calm Calm - N/A   Clear
7:50 AM 71.6 °F - 66.2 °F 83% 30.06 in 10.0 mi SSE 5.8 mph - N/A   Clear
8:10 AM 73.4 °F - 66.2 °F 78% 30.06 in 10.0 mi South 5.8 mph - N/A   Clear
8:30 AM 73.4 °F - 66.2 °F 78% 30.06 in 10.0 mi SSE 5.8 mph - N/A   Clear
8:50 AM 75.2 °F - 64.4 °F 69% 30.07 in 10.0 mi South 4.6 mph - N/A   Clear
9:30 AM 80.6 °F 82.3 °F 64.4 °F 58% 30.07 in 10.0 mi SSW 9.2 mph - N/A   Clear
9:50 AM 80.6 °F 82.3 °F 64.4 °F 58% 30.07 in 10.0 mi South 12.7 mph - N/A   Clear
10:10 AM 80.6 °F 82.3 °F 64.4 °F 58% 30.07 in 10.0 mi SW 12.7 mph 18.4 mph N/A   Clear
10:30 AM 82.4 °F 84.6 °F 66.2 °F 58% 30.07 in 10.0 mi South 10.4 mph - N/A   Clear
10:50 AM 82.4 °F 84.6 °F 66.2 °F 58% 30.07 in 10.0 mi South 9.2 mph 18.4 mph N/A   Clear
11:10 AM 84.2 °F 86.6 °F 66.2 °F 55% 30.07 in 10.0 mi SSW 12.7 mph - N/A   Partly Cloudy
11:30 AM 84.2 °F 86.6 °F 66.2 °F 55% 30.06 in 10.0 mi SSW 10.4 mph 18.4 mph N/A   Partly Cloudy
11:50 AM 84.2 °F 86.6 °F 66.2 °F 55% 30.06 in 10.0 mi South 10.4 mph 19.6 mph N/A   Partly Cloudy
12:10 PM 86.0 °F 88.2 °F 66.2 °F 51% 30.05 in 10.0 mi SSE 10.4 mph 18.4 mph N/A   Partly Cloudy
12:30 PM 84.2 °F 85.6 °F 64.4 °F 51% 30.05 in 10.0 mi SSW 10.4 mph 17.3 mph N/A   Scattered Clouds
12:50 PM 86.0 °F 87.3 °F 64.4 °F 48% 30.04 in 10.0 mi South 11.5 mph - N/A   Scattered Clouds
1:10 PM 84.2 °F 85.6 °F 64.4 °F 51% 30.03 in 10.0 mi South 12.7 mph 20.7 mph N/A   Scattered Clouds
1:30 PM 84.2 °F 85.6 °F 64.4 °F 51% 30.03 in 10.0 mi SSE 12.7 mph 18.4 mph N/A   Scattered Clouds
1:50 PM 86.0 °F 87.3 °F 64.4 °F 48% 30.03 in 10.0 mi South 13.8 mph 19.6 mph N/A   Partly Cloudy
2:10 PM 86.0 °F 87.3 °F 64.4 °F 48% 30.02 in 10.0 mi South 11.5 mph 20.7 mph N/A   Partly Cloudy
2:30 PM 86.0 °F 87.3 °F 64.4 °F 48% 30.01 in 10.0 mi SSE 13.8 mph 19.6 mph N/A   Partly Cloudy
3:10 PM 86.0 °F 87.3 °F 64.4 °F 48% 30.00 in 10.0 mi SSE 12.7 mph - N/A   Scattered Clouds
3:50 PM 86.0 °F 87.3 °F 64.4 °F 48% 29.99 in 10.0 mi SE 10.4 mph - N/A   Scattered Clouds
4:10 PM 86.0 °F 87.3 °F 64.4 °F 48% 29.98 in 10.0 mi SE 10.4 mph - N/A   Scattered Clouds
4:30 PM 86.0 °F 87.3 °F 64.4 °F 48% 29.98 in 10.0 mi SE 12.7 mph 19.6 mph N/A   Scattered Clouds
4:50 PM 84.2 °F 85.6 °F 64.4 °F 51% 29.98 in 10.0 mi SE 10.4 mph - N/A   Scattered Clouds
5:10 PM 82.4 °F 84.6 °F 66.2 °F 58% 29.98 in 10.0 mi SE 8.1 mph - N/A   Partly Cloudy
5:30 PM 82.4 °F 84.6 °F 66.2 °F 58% 30.00 in 10.0 mi SSE 8.1 mph - N/A   Partly Cloudy
5:50 PM 82.4 °F 84.6 °F 66.2 °F 58% 29.99 in 10.0 mi SSE 10.4 mph 16.1 mph N/A Thunderstorm Scattered Clouds
6:10 PM 80.6 °F 82.3 °F 64.4 °F 58% 30.00 in 10.0 mi South 8.1 mph - N/A Thunderstorm Partly Cloudy
6:30 PM 77.0 °F - 62.6 °F 61% 30.01 in 10.0 mi SSW 15.0 mph 33.4 mph N/A Thunderstorm Clear
6:50 PM 73.4 °F - 62.6 °F 69% 30.03 in 10.0 mi SW 13.8 mph 25.3 mph N/A Thunderstorm Thunderstorm
7:10 PM 71.6 °F - 62.6 °F 73% 30.04 in 10.0 mi SW 12.7 mph 19.6 mph N/A Thunderstorm Clear
7:30 PM 71.6 °F - 60.8 °F 69% 30.04 in 10.0 mi SSW 8.1 mph - N/A   Scattered Clouds
7:50 PM 71.6 °F - 60.8 °F 69% 30.05 in 10.0 mi ESE 4.6 mph - N/A   Partly Cloudy
8:10 PM 71.6 °F - 62.6 °F 73% 30.04 in 10.0 mi Calm Calm - N/A Rain Light Rain
8:30 PM 69.8 °F - 62.6 °F 78% 30.04 in 10.0 mi SSE 4.6 mph - N/A   Scattered Clouds
8:50 PM 68.0 °F - 64.4 °F 88% 30.04 in 10.0 mi ESE 3.5 mph - N/A   Clear
9:10 PM 68.0 °F - 62.6 °F 83% 30.05 in 10.0 mi North - - N/A   Clear
9:30 PM 68.0 °F - 62.6 °F 83% 30.03 in 10.0 mi North - - N/A   Partly Cloudy
9:50 PM 68.0 °F - 64.4 °F 88% 30.04 in 10.0 mi North - - N/A   Clear
10:10 PM 68.0 °F - 62.6 °F 83% 30.05 in 10.0 mi SE 4.6 mph - N/A   Clear
10:50 PM 68.0 °F - 64.4 °F 88% 30.03 in 10.0 mi East 4.6 mph - N/A   Clear
11:10 PM 66.2 °F - 62.6 °F 88% 30.04 in 10.0 mi ESE 5.8 mph - N/A   Clear
11:30 PM 66.2 °F - 64.4 °F 94% 30.05 in 10.0 mi ESE 3.5 mph - N/A   Partly Cloudy
11:50 PM 66.2 °F - 64.4 °F 94% 30.04 in 10.0 mi Calm Calm - N/A   Partly Cloudy